GW2463 Weather Reports


time (UTC)temp
C
wind
direction
speed
KPH
gust
KPH
rain 1hr
cm
rain 24hr
cm
rain mn
cm
humidity
%
barometer
mb
20260510045014 9 123 0.0 0.0 0.00 0.48 0.00 94 1011.4
20260510044515 9 122 0.0 0.0 0.00 0.48 0.00 94 1011.3
20260510044033 9 120 0.0 1.6 0.00 0.48 0.00 94 1011.1
20260510043529 9 178 0.0 1.6 0.00 0.48 0.00 94 1011.0
20260510043044 9 170 0.0 0.0 0.00 0.48 0.00 94 1010.8
20260510042523 9 141 0.0 1.6 0.00 0.48 0.00 94 1010.8
20260510042023 9 140 0.0 1.6 0.00 0.48 0.00 94 1010.8
20260510041520 9 141 0.0 1.6 0.00 0.48 0.00 94 1010.9
20260510041037 9 139 0.0 1.6 0.00 0.48 0.00 94 1011.0
20260510040512 8 141 0.0 0.0 0.00 0.48 0.00 94 1011.1
20260510040025 8 138 0.0 0.0 0.00 0.48 0.00 94 1010.9
20260510035558 8 217 0.0 0.0 0.00 0.48 0.48 94 1011.0
20260510035039 8 221 0.0 1.6 0.00 0.48 0.48 94 1010.9
20260510034552 8 221 0.0 1.6 0.00 0.48 0.48 94 1010.9
20260510034025 8 221 0.0 1.6 0.00 0.48 0.48 93 1010.7
20260510033546 8 221 0.0 1.6 0.00 0.48 0.48 93 1010.8
20260510033031 8 49 0.0 0.0 0.00 0.48 0.48 93 1010.8
20260510032521 8 49 0.0 0.0 0.00 0.48 0.48 93 1010.8
20260510032017 8 45 0.0 0.0 0.00 0.48 0.48 93 1010.8
20260510031536 8 45 0.0 0.0 0.00 0.48 0.48 93 1010.8
20260510031034 8 45 0.0 0.0 0.00 0.48 0.48 93 1010.8
20260510030513 9 45 0.0 0.0 0.00 0.48 0.48 93 1010.7
20260510030025 9 46 0.0 0.0 0.00 0.48 0.48 93 1010.7
20260510025524 9 46 0.0 0.0 0.00 0.48 0.48 93 1010.7
20260510025043 9 45 0.0 0.0 0.00 0.48 0.48 93 1010.6
20260510024521 9 45 0.0 1.6 0.00 0.48 0.48 93 1010.7
20260510024020 9 46 0.0 1.6 0.00 0.48 0.48 93 1010.7
20260510023520 9 46 0.0 0.0 0.00 0.48 0.48 93 1010.7
20260510023018 9 45 0.0 0.0 0.00 0.48 0.48 93 1010.8
20260510022517 9 19 0.0 0.0 0.00 0.48 0.48 93 1010.8
20260510022016 9 19 0.0 0.0 0.00 0.48 0.48 93 1011.0
20260510021513 9 19 0.0 0.0 0.00 0.48 0.48 93 1010.9
20260510021031 9 19 0.0 0.0 0.00 0.48 0.48 93 1010.9
20260510020527 9 17 0.0 0.0 0.00 0.48 0.48 92 1011.0
20260510020022 9 18 0.0 0.0 0.00 0.48 0.48 92 1011.0
20260510015519 9 18 0.0 0.0 0.00 0.48 0.48 92 1010.9
20260510015036 9 18 0.0 0.0 0.00 0.48 0.48 92 1010.8
20260510014512 9 18 0.0 0.0 0.00 0.48 0.48 92 1010.7
20260510014031 9 18 0.0 0.0 0.00 0.48 0.48 92 1010.6
20260510013531 9 18 0.0 0.0 0.00 0.48 0.48 92 1010.7
20260510013051 10 15 0.0 0.0 0.00 0.48 0.48 92 1010.7
20260510012530 10 16 0.0 0.0 0.00 0.48 0.48 92 1010.8
20260510012013 10 15 0.0 0.0 0.00 0.48 0.48 91 1010.8
20260510011512 10 15 0.0 0.0 0.00 0.48 0.48 91 1010.7
20260510011015 10 15 0.0 1.6 0.00 0.48 0.48 91 1010.7
20260510010515 10 15 0.0 1.6 0.00 0.48 0.48 91 1010.4
20260510010031 10 15 0.0 1.6 0.00 0.48 0.48 91 1010.3
20260510005529 10 15 0.0 0.0 0.00 0.48 0.48 90 1010.5
20260510005032 10 15 0.0 0.0 0.00 0.48 0.48 90 1010.4
20260510004512 10 15 0.0 0.0 0.00 0.48 0.48 90 1010.5
20260510004052 10 15 0.0 1.6 0.00 0.48 0.48 90 1010.6
20260510003543 10 15 0.0 1.6 0.00 0.48 0.48 89 1010.6
20260510003021 10 15 0.0 0.0 0.00 0.48 0.48 89 1010.4
20260510002518 11 15 0.0 0.0 0.00 0.48 0.48 88 1010.3
20260510002015 11 15 0.0 0.0 0.00 0.48 0.48 88 1010.2
20260510001513 11 15 0.0 0.0 0.00 0.48 0.48 87 1010.0
20260510001033 11 15 0.0 0.0 0.00 0.48 0.48 86 1009.9
20260510000552 11 15 0.0 0.0 0.00 0.48 0.48 85 1010.0
20260510000047 11 15 0.0 0.0 0.00 0.48 0.48 84 1010.0
20260509235525 11 15 0.0 0.0 0.00 0.48 0.48 84 1009.8
20260509235024 11 15 0.0 0.0 0.00 0.48 0.48 83 1009.6
20260509234522 11 15 0.0 0.0 0.00 0.48 0.48 83 1009.7
20260509234040 12 15 0.0 0.0 0.00 0.48 0.48 83 1009.6
20260509233539 12 15 0.0 0.0 0.00 0.48 0.48 83 1009.6
20260509233032 12 15 0.0 1.6 0.00 0.48 0.48 82 1009.7
20260509232552 12 15 0.0 1.6 0.00 0.48 0.48 81 1009.5
20260509232051 12 222 0.0 11.3 0.00 0.48 0.48 81 1009.4
20260509231532 12 223 0.0 11.3 0.00 0.48 0.48 80 1009.3
20260509231052 12 123 0.0 1.6 0.00 0.48 0.48 81 1009.3
20260509230551 12 219 0.0 1.6 0.00 0.48 0.48 80 1009.4
20260509230027 12 270 0.0 1.6 0.00 0.48 0.48 80 1009.5
20260509225526 12 210 0.0 1.6 0.00 0.48 0.48 81 1009.5
20260509225026 12 205 0.0 3.2 0.00 0.48 0.48 81 1009.5
20260509224527 12 232 0.0 3.2 0.00 0.48 0.48 83 1009.6
20260509224025 12 287 0.0 3.2 0.00 0.48 0.48 82 1009.5
20260509223525 12 278 0.0 3.2 0.00 0.48 0.48 82 1009.6
20260509223026 12 274 1.6 3.2 0.00 0.48 0.48 84 1009.5
20260509222524 12 219 0.0 3.2 0.00 0.48 0.48 84 1009.6
20260509222024 12 184 0.0 1.6 0.00 0.48 0.48 85 1009.7
20260509221524 12 301 0.0 4.8 0.00 0.48 0.48 85 1009.7
20260509221023 11 229 0.0 4.8 0.00 0.48 0.48 85 1009.7
20260509220521 11 280 0.0 3.2 0.00 0.48 0.48 86 1009.6
20260509220013 11 246 0.0 16.1 0.00 0.48 0.48 86 1009.8
20260509215512 11 239 1.6 16.1 0.00 0.48 0.48 86 1009.8
20260509215031 11 255 0.0 8.0 0.00 0.48 0.48 87 1009.8
20260509214529 11 256 1.6 8.0 0.00 0.48 0.48 87 1009.9
20260509214026 11 230 1.6 8.0 0.00 0.48 0.48 87 1009.9
20260509213523 11 208 1.6 9.7 0.00 0.48 0.48 89 1010.0
20260509213020 11 273 0.0 9.7 0.00 0.48 0.48 88 1010.0
20260509212517 11 284 1.6 16.1 0.00 0.48 0.48 88 1010.0
20260509212014 11 212 1.6 16.1 0.00 0.48 0.48 88 1010.0
20260509211540 11 238 3.2 11.3 0.00 0.48 0.48 90 1010.0
20260509211049 11 252 3.2 11.3 0.00 0.48 0.48 91 1010.0
20260509210532 10 280 0.0 3.2 0.03 0.48 0.48 92 1010.0
20260509210019 10 238 0.0 3.2 0.03 0.48 0.48 92 1009.8
20260509205536 10 231 0.0 3.2 0.03 0.48 0.48 92 1009.9
20260509205053 10 277 0.0 1.6 0.03 0.48 0.48 92 1010.0
20260509204530 10 243 0.0 3.2 0.03 0.48 0.48 92 1009.9
20260509204019 10 276 0.0 3.2 0.03 0.48 0.48 92 1010.0
20260509203517 10 280 0.0 1.6 0.03 0.48 0.48 92 1010.0
20260509203030 10 253 0.0 1.6 0.03 0.48 0.48 92 1010.1
20260509202547 10 271 0.0 1.6 0.03 0.48 0.48 91 1010.3
20260509202045 10 259 0.0 3.2 0.03 0.48 0.48 91 1010.4
20260509201543 9 260 0.0 3.2 0.03 0.48 0.48 91 1010.5
20260509201019 10 233 1.6 4.8 0.03 0.48 0.48 90 1010.4
20260509200535 10 226 1.6 8.0 0.00 0.46 0.46 90 1010.4
20260509200026 10 280 3.2 8.0 0.03 0.46 0.46 90 1010.5
20260509195520 10 281 0.0 3.2 0.03 0.46 0.46 91 1010.5
20260509195016 10 262 0.0 6.4 0.03 0.46 0.46 91 1010.5
20260509194533 10 266 1.6 6.4 0.03 0.46 0.46 91 1010.7
20260509194029 10 293 0.0 11.3 0.05 0.46 0.46 91 1010.8
20260509193526 10 230 3.2 11.3 0.05 0.46 0.46 91 1010.9
20260509193044 9 253 0.0 4.8 0.08 0.46 0.46 91 1011.0
20260509192520 9 288 1.6 4.8 0.08 0.46 0.46 91 1011.0
20260509192018 9 269 0.0 3.2 0.08 0.46 0.46 91 1011.1
20260509191037 9 280 0.0 4.8 0.10 0.46 0.46 91 1011.0
20260509190513 9 276 0.0 3.2 0.13 0.46 0.46 91 1011.1
20260509190027 9 255 0.0 4.8 0.13 0.43 0.43 91 1011.3
20260509185525 9 250 3.2 6.4 0.13 0.43 0.43 91 1011.4
20260509185025 9 314 1.6 9.7 0.15 0.43 0.43 91 1011.4
20260509184524 9 240 3.2 9.7 0.18 0.43 0.43 91 1011.4
20260509184023 9 251 0.0 4.8 0.15 0.41 0.41 91 1011.5
20260509183541 9 242 0.0 4.8 0.18 0.41 0.41 91 1011.5
20260509183019 9 267 0.0 6.4 0.15 0.38 0.38 91 1011.4
20260509182518 9 242 1.6 6.4 0.15 0.38 0.38 92 1011.4
20260509182017 9 271 0.0 3.2 0.15 0.38 0.38 92 1011.3
20260509181515 10 91 0.0 3.2 0.13 0.36 0.36 92 1011.3
20260509181014 10 221 0.0 3.2 0.13 0.36 0.36 92 1011.3
20260509180512 10 15 0.0 3.2 0.10 0.33 0.33 92 1011.3
20260509180022 10 70 0.0 3.2 0.10 0.30 0.30 92 1011.4
20260509175519 10 271 0.0 3.2 0.10 0.30 0.30 92 1011.4
20260509175037 10 222 0.0 3.2 0.08 0.28 0.28 92 1011.4
20260509174516 10 262 0.0 1.6 0.05 0.25 0.25 92 1011.4
20260509174016 10 208 0.0 1.6 0.05 0.25 0.25 92 1011.4
20260509173515 10 274 0.0 1.6 0.05 0.23 0.23 92 1011.4
20260509173016 10 277 0.0 3.2 0.05 0.23 0.23 92 1011.4
20260509172518 10 235 0.0 3.2 0.05 0.23 0.23 92 1011.3
20260509172039 10 242 0.0 3.2 0.05 0.23 0.23 92 1011.3
20260509171519 10 245 0.0 6.4 0.05 0.23 0.23 92 1011.4
20260509171018 10 287 1.6 6.4 0.05 0.23 0.23 92 1011.4
20260509170516 10 238 0.0 6.4 0.05 0.23 0.23 92 1011.4
20260509170032 10 255 0.0 1.6 0.03 0.20 0.20 92 1011.4
20260509165550 10 284 0.0 1.6 0.03 0.20 0.20 92 1011.3
20260509165048 10 105 0.0 1.6 0.03 0.20 0.20 92 1011.4
20260509164525 10 215 0.0 3.2 0.03 0.20 0.20 92 1011.4
20260509164042 10 224 0.0 3.2 0.03 0.20 0.20 92 1011.3
20260509163517 10 46 0.0 3.2 0.00 0.18 0.18 92 1011.4
20260509163014 10 71 0.0 3.2 0.00 0.18 0.18 92 1011.3
20260509162531 10 281 0.0 1.6 0.00 0.18 0.18 92 1011.5
20260509162048 10 243 0.0 1.6 0.00 0.18 0.18 92 1011.4
20260509161524 10 122 0.0 1.6 0.00 0.18 0.18 92 1011.5
20260509161021 10 208 0.0 1.6 0.00 0.18 0.18 92 1011.6
20260509160518 10 236 0.0 3.2 0.03 0.18 0.18 92 1011.7
20260509160029 10 239 0.0 3.2 0.03 0.18 0.18 92 1011.6
20260509155526 10 229 0.0 1.6 0.03 0.18 0.18 92 1011.6
20260509155022 10 245 0.0 3.2 0.03 0.18 0.18 93 1011.6
20260509154519 10 230 0.0 1.6 0.03 0.18 0.18 93 1011.6
20260509154015 9 63 0.0 1.6 0.03 0.18 0.18 93 1011.5
20260509153512 9 68 0.0 1.6 0.03 0.18 0.18 93 1011.4
20260509153031 9 208 0.0 1.6 0.05 0.18 0.18 93 1011.4
20260509152529 9 110 0.0 1.6 0.05 0.18 0.18 93 1011.5
20260509152027 9 155 0.0 0.0 0.05 0.18 0.18 93 1011.8
20260509151525 9 170 0.0 0.0 0.05 0.18 0.18 93 1011.9
20260509151043 8 219 0.0 1.6 0.05 0.18 0.18 93 1012.0
20260509150521 8 219 0.0 1.6 0.03 0.15 0.15 93 1012.0
20260509150013 8 236 0.0 1.6 0.03 0.15 0.15 92 1012.1
20260509145529 8 76 0.0 1.6 0.03 0.15 0.15 92 1012.1
20260509145042 8 252 0.0 1.6 0.03 0.15 0.15 92 1012.1
20260509144517 8 148 0.0 1.6 0.03 0.15 0.15 92 1012.1
20260509144032 8 176 0.0 1.6 0.03 0.15 0.15 92 1012.0
20260509143548 8 110 0.0 1.6 0.03 0.15 0.15 92 1012.1
20260509143024 8 159 0.0 1.6 0.00 0.13 0.13 92 1012.0
20260509142521 8 141 0.0 1.6 0.00 0.13 0.13 92 1011.9
20260509142040 8 142 0.0 0.0 0.00 0.13 0.13 92 1011.8
20260509141518 8 83 0.0 0.0 0.00 0.13 0.13 92 1011.7
20260509141017 8 83 0.0 1.6 0.00 0.13 0.13 92 1011.8
20260509140536 8 82 0.0 1.6 0.00 0.13 0.13 92 1011.6
20260509140029 8 83 0.0 1.6 0.00 0.13 0.13 92 1011.6
20260509135528 8 131 0.0 1.6 0.00 0.13 0.13 92 1011.6
20260509135047 8 139 0.0 1.6 0.00 0.13 0.13 92 1011.6
20260509134525 8 138 0.0 0.0 0.00 0.13 0.13 92 1011.7
20260509134023 8 138 0.0 1.6 0.00 0.13 0.13 92 1011.7
20260509133523 8 136 0.0 1.6 0.00 0.13 0.13 92 1011.6
20260509133022 8 78 0.0 0.0 0.00 0.13 0.13 92 1011.8
20260509132521 8 72 0.0 0.0 0.00 0.13 0.13 92 1011.6
20260509132020 8 72 0.0 0.0 0.03 0.13 0.13 92 1011.7
20260509131518 8 119 0.0 0.0 0.03 0.13 0.13 92 1011.8
20260509131018 8 118 0.0 0.0 0.03 0.13 0.13 92 1011.9
20260509130536 8 119 0.0 0.0 0.03 0.13 0.13 93 1011.9
20260509130031 8 119 0.0 1.6 0.03 0.13 0.13 93 1012.0
20260509125530 8 117 0.0 1.6 0.03 0.13 0.13 93 1011.9
20260509125028 8 119 0.0 1.6 0.03 0.13 0.13 93 1011.9
20260509124527 8 60 0.0 0.0 0.03 0.13 0.13 93 1012.0
20260509124026 8 61 0.0 1.6 0.03 0.13 0.13 93 1011.9
20260509123525 8 60 0.0 3.2 0.03 0.13 0.13 93 1012.0
20260509123024 8 215 0.0 1.6 0.03 0.13 0.13 93 1012.0
20260509122523 7 162 0.0 0.0 0.03 0.13 0.13 93 1012.1
20260509122023 7 162 0.0 1.6 0.00 0.10 0.10 93 1012.1
20260509121521 7 162 0.0 1.6 0.00 0.10 0.10 93 1012.0
20260509121020 7 121 0.0 0.0 0.00 0.10 0.10 93 1012.0
20260509120518 7 121 0.0 0.0 0.00 0.10 0.10 93 1011.9
20260509120013 7 120 0.0 0.0 0.00 0.10 0.10 93 1011.8
20260509115530 7 120 0.0 0.0 0.00 0.10 0.10 93 1011.7
20260509115027 7 120 0.0 0.0 0.00 0.10 0.10 93 1011.7
20260509114545 7 119 0.0 0.0 0.00 0.10 0.10 93 1011.8
20260509114020 7 120 0.0 0.0 0.00 0.10 0.10 93 1011.9
20260509113517 7 120 0.0 0.0 0.00 0.10 0.10 93 1011.8
20260509113014 7 122 0.0 0.0 0.00 0.10 0.10 93 1011.9
20260509112512 7 122 0.0 3.2 0.00 0.10 0.10 93 1011.9
20260509112029 7 102 0.0 3.2 0.00 0.10 0.10 93 1011.7
20260509111542 7 108 0.0 0.0 0.00 0.10 0.10 93 1011.8
20260509111038 7 86 0.0 0.0 0.00 0.10 0.10 93 1011.7
20260509110514 7 86 0.0 0.0 0.00 0.10 0.10 93 1011.8
20260509110029 7 86 0.0 0.0 0.00 0.10 0.10 93 1011.8
20260509105527 7 86 0.0 0.0 0.00 0.10 0.10 93 1011.7
20260509105026 7 86 0.0 0.0 0.00 0.10 0.10 93 1011.8
20260509104525 7 86 0.0 0.0 0.00 0.10 0.10 93 1011.7
20260509104025 7 86 0.0 1.6 0.00 0.10 0.10 93 1011.7
20260509103525 7 86 0.0 1.6 0.00 0.10 0.10 93 1011.8
20260509103023 7 135 0.0 0.0 0.00 0.10 0.10 93 1011.9
20260509102522 7 136 0.0 0.0 0.00 0.10 0.10 93 1011.7
20260509102020 7 136 0.0 0.0 0.00 0.10 0.10 93 1011.7
20260509101518 7 135 0.0 0.0 0.00 0.10 0.10 93 1011.8
20260509101037 7 135 0.0 0.0 0.00 0.10 0.10 93 1011.6
20260509100516 7 135 0.0 1.6 0.00 0.10 0.10 93 1011.6
20260509100029 7 135 0.0 1.6 0.00 0.10 0.10 93 1011.6
20260509095526 7 165 0.0 0.0 0.00 0.10 0.10 93 1011.7
20260509095023 7 166 0.0 0.0 0.00 0.10 0.10 93 1011.7
20260509094520 7 165 0.0 0.0 0.00 0.10 0.10 93 1011.8
20260509094018 7 167 0.0 0.0 0.00 0.10 0.10 92 1011.9
20260509093516 7 167 0.0 0.0 0.00 0.10 0.10 93 1012.0
20260509093015 7 167 0.0 0.0 0.00 0.10 0.10 92 1012.0
20260509092514 7 167 0.0 0.0 0.00 0.10 0.10 92 1012.1
20260509092013 7 167 0.0 0.0 0.00 0.10 0.10 92 1012.0
20260509091512 7 167 0.0 0.0 0.00 0.10 0.10 92 1012.0
20260509091031 7 167 0.0 0.0 0.00 0.10 0.10 92 1012.1
20260509090550 7 168 0.0 1.6 0.00 0.10 0.10 92 1012.1
20260509090024 7 168 0.0 1.6 0.00 0.10 0.10 92 1012.1
20260509085523 7 169 0.0 0.0 0.00 0.10 0.10 92 1012.3
20260509085022 7 169 0.0 0.0 0.00 0.10 0.10 92 1012.3
20260509084521 7 169 0.0 0.0 0.00 0.10 0.10 92 1012.3
20260509084041 7 169 0.0 0.0 0.00 0.10 0.10 92 1012.3
20260509083519 7 169 0.0 0.0 0.00 0.10 0.10 92 1012.3
20260509083018 7 169 0.0 0.0 0.00 0.10 0.10 92 1012.3
20260509082517 7 169 0.0 0.0 0.00 0.10 0.10 92 1012.3
20260509082016 7 169 0.0 0.0 0.00 0.10 0.10 92 1012.3
20260509081516 7 169 0.0 1.6 0.00 0.10 0.10 92 1012.3
20260509081036 7 169 0.0 1.6 0.00 0.10 0.10 92 1012.3
20260509080515 7 181 0.0 0.0 0.00 0.10 0.10 92 1012.4
20260509080030 7 182 0.0 0.0 0.00 0.10 0.10 92 1012.6
20260509075531 7 182 0.0 0.0 0.00 0.10 0.10 92 1012.8
20260509075031 7 181 0.0 0.0 0.00 0.10 0.10 92 1012.7
20260509074531 7 181 0.0 0.0 0.00 0.10 0.10 92 1012.5
20260509074031 7 181 0.0 0.0 0.00 0.10 0.10 92 1012.5
20260509073528 7 181 0.0 0.0 0.00 0.10 0.10 92 1012.6
20260509073048 7 182 0.0 0.0 0.03 0.10 0.10 92 1012.3
20260509072525 7 179 0.0 1.6 0.03 0.10 0.10 92 1012.3
20260509072024 7 179 0.0 1.6 0.03 0.10 0.10 92 1012.2
20260509071542 7 181 0.0 1.6 0.03 0.10 0.10 92 1012.1
20260509071020 7 107 0.0 0.0 0.05 0.10 0.10 92 1012.1
20260509070519 7 105 0.0 0.0 0.05 0.10 0.10 91 1012.0
20260509070012 7 105 0.0 0.0 0.05 0.10 0.10 91 1012.0
20260509065511 7 106 0.0 0.0 0.05 0.13 0.10 91 1012.2
20260509065027 7 106 0.0 0.0 0.05 0.13 0.10 91 1012.2
20260509064526 7 105 0.0 0.0 0.08 0.13 0.10 91 1012.3
20260509064025 7 105 0.0 0.0 0.08 0.13 0.10 91 1012.5
20260509063524 7 105 0.0 0.0 0.10 0.13 0.10 90 1012.6
20260509063023 7 106 0.0 0.0 0.08 0.10 0.08 90 1012.8
20260509062521 7 105 0.0 0.0 0.08 0.10 0.08 90 1012.9
20260509062020 7 106 0.0 0.0 0.08 0.10 0.08 90 1012.9
20260509061519 7 105 0.0 0.0 0.08 0.10 0.08 89 1013.0
20260509061039 7 106 0.0 0.0 0.05 0.08 0.05 89 1012.9
20260509060518 7 106 0.0 0.0 0.05 0.08 0.05 89 1013.0
20260509060034 7 105 0.0 1.6 0.05 0.08 0.05 88 1013.0
20260509055511 7 105 0.0 1.6 0.05 0.10 0.05 88 1012.9
20260509055012 8 146 0.0 1.6 0.05 0.10 0.05 88 1013.0
20260509054533 8 156 0.0 1.6 0.03 0.08 0.03 87 1013.0
20260509054030 8 211 0.0 3.2 0.03 0.08 0.03 87 1013.1
20260509053530 8 170 0.0 3.2 0.00 0.05 0.00 87 1013.2
20260509053029 8 105 0.0 1.6 0.00 0.05 0.00 87 1013.2
20260509052530 8 219 0.0 1.6 0.00 0.05 0.00 87 1013.4
20260509052011 8 197 0.0 0.0 0.00 0.05 0.00 86 1013.2
20260509051533 8 195 0.0 0.0 0.00 0.05 0.00 86 1012.9
20260509051031 8 195 0.0 0.0 0.00 0.05 0.00 85 1012.8
20260509050534 8 195 0.0 0.0 0.00 0.05 0.00 85 1012.8
20260509050025 8 195 0.0 0.0 0.00 0.05 0.00 85 1012.7
20260509045526 8 197 0.0 1.6 0.00 0.10 0.00 84 1012.8